TimePST,TemperatureF,Dew PointF,Humidity,Sea Level PressureIn,VisibilityMPH,Wind Direction,Wind SpeedMPH,Gust SpeedMPH,PrecipitationIn,Events,Conditions,WindDirDegrees,DateUTC
12:53 AM,48.9,43.0,80,29.88,6.0,NW,4.6,-,N/A,,Haze,310,2013-11-28 08:53:00
1:53 AM,48.9,43.0,80,29.89,7.0,Calm,Calm,-,N/A,,Clear,0,2013-11-28 09:53:00
2:53 AM,48.0,43.0,83,29.89,7.0,Calm,Calm,-,N/A,,Clear,0,2013-11-28 10:53:00
3:53 AM,46.9,42.1,83,29.89,7.0,Calm,Calm,-,N/A,,Clear,0,2013-11-28 11:53:00
4:53 AM,46.9,42.1,83,29.89,7.0,Calm,Calm,-,N/A,,Clear,0,2013-11-28 12:53:00
5:53 AM,48.0,41.0,77,29.89,9.0,NW,3.5,-,N/A,,Clear,310,2013-11-28 13:53:00
6:53 AM,46.9,41.0,80,29.92,9.0,Calm,Calm,-,N/A,,Clear,0,2013-11-28 14:53:00
7:53 AM,46.9,41.0,80,29.94,8.0,NW,5.8,-,N/A,,Clear,320,2013-11-28 15:53:00
8:53 AM,48.0,42.1,80,29.94,8.0,WNW,4.6,-,N/A,,Clear,290,2013-11-28 16:53:00
9:53 AM,32.0,-9999,N/A,29.97,8.0,NW,4.6,-,N/A,,Clear,310,2013-11-28 17:53:00
10:53 AM,32.0,-9999,N/A,29.96,8.0,Calm,Calm,-,N/A,,Clear,0,2013-11-28 18:53:00
11:53 AM,-9999,-9999,N/A,29.96,10.0,Calm,Calm,-,N/A,,Clear,0,2013-11-28 19:53:00
12:53 PM,32.0,-9999,N/A,29.95,10.0,West,3.5,-,N/A,,Clear,270,2013-11-28 20:53:00
1:53 PM,32.0,-9999,N/A,29.94,10.0,Calm,Calm,-,N/A,,Clear,0,2013-11-28 21:53:00
2:53 PM,-9999,-9999,N/A,29.95,9.0,Calm,Calm,-,N/A,,Clear,0,2013-11-28 22:53:00
3:53 PM,68.0,41.0,37,29.96,9.0,Calm,Calm,-,N/A,,Clear,0,2013-11-28 23:53:00
4:53 PM,62.1,46.0,56,29.97,8.0,West,3.5,-,N/A,,Clear,280,2013-11-29 00:53:00
5:53 PM,57.9,46.0,65,29.99,8.0,Calm,Calm,-,N/A,,Clear,0,2013-11-29 01:53:00
6:53 PM,53.1,46.0,77,30.00,8.0,Calm,Calm,-,N/A,,Clear,0,2013-11-29 02:53:00
7:53 PM,51.1,46.0,83,30.02,7.0,Calm,Calm,-,N/A,,Clear,0,2013-11-29 03:53:00
8:53 PM,48.9,45.0,86,30.03,6.0,Calm,Calm,-,N/A,,Clear,0,2013-11-29 04:53:00
9:53 PM,46.9,45.0,93,30.06,6.0,Calm,Calm,-,N/A,,Clear,0,2013-11-29 05:53:00
10:53 PM,46.0,44.1,93,30.07,6.0,Calm,Calm,-,N/A,,Clear,0,2013-11-29 06:53:00
11:53 PM,45.0,43.0,93,30.07,4.0,Calm,Calm,-,N/A,,Clear,0,2013-11-29 07:53:00